TimeCDT,TemperatureF,Dew PointF,Humidity,Sea Level PressureIn,VisibilityMPH,Wind Direction,Wind SpeedMPH,Gust SpeedMPH,PrecipitationIn,Events,Conditions,WindDirDegrees,DateUTC
12:15 AM,43.2,29.3,58,30.06,10.0,SSW,10.4,-,N/A,,Clear,210,2012-10-08 05:15:00
12:35 AM,43.0,29.3,59,30.06,10.0,SSW,11.5,-,N/A,,Clear,210,2012-10-08 05:35:00
12:55 AM,42.6,29.3,59,30.06,10.0,SSW,10.4,-,N/A,,Clear,210,2012-10-08 05:55:00
1:15 AM,42.1,29.3,61,30.06,10.0,SSW,9.2,-,N/A,,Clear,200,2012-10-08 06:15:00
1:35 AM,41.7,29.5,62,30.06,10.0,SSW,10.4,-,N/A,,Clear,200,2012-10-08 06:35:00
1:55 AM,41.5,29.5,62,30.06,10.0,SSW,9.2,-,N/A,,Clear,200,2012-10-08 06:55:00
2:15 AM,41.0,29.7,64,30.05,10.0,South,8.1,-,N/A,,Clear,190,2012-10-08 07:15:00
2:35 AM,41.0,29.5,64,30.05,10.0,SSW,9.2,-,N/A,,Clear,200,2012-10-08 07:35:00
2:55 AM,40.5,29.3,64,30.04,10.0,SSW,6.9,-,N/A,,Clear,200,2012-10-08 07:55:00
3:15 AM,40.6,29.3,64,30.04,10.0,SSW,6.9,-,N/A,,Clear,210,2012-10-08 08:15:00
3:35 AM,40.1,29.3,65,30.03,10.0,SSW,6.9,-,N/A,,Clear,200,2012-10-08 08:35:00
3:55 AM,39.6,29.5,67,30.02,10.0,SSW,8.1,-,N/A,,Clear,200,2012-10-08 08:55:00
4:15 AM,39.4,29.5,68,30.02,10.0,SSW,6.9,-,N/A,,Clear,210,2012-10-08 09:15:00
4:35 AM,39.2,29.3,68,30.02,10.0,SSW,8.1,-,N/A,,Clear,200,2012-10-08 09:35:00
4:55 AM,38.7,29.3,69,30.02,10.0,SSW,9.2,-,N/A,,Clear,200,2012-10-08 09:55:00
5:15 AM,38.1,29.3,71,30.02,10.0,SSW,6.9,-,N/A,,Clear,200,2012-10-08 10:15:00
5:35 AM,36.9,29.3,74,30.02,10.0,SSW,8.1,-,N/A,,Clear,200,2012-10-08 10:35:00
5:55 AM,36.7,29.3,75,30.01,10.0,SSW,6.9,-,N/A,,Clear,200,2012-10-08 10:55:00
6:15 AM,36.5,29.3,75,30.01,10.0,South,6.9,-,N/A,,Clear,190,2012-10-08 11:15:00
6:35 AM,35.8,29.1,77,30.01,10.0,South,8.1,-,N/A,,Clear,190,2012-10-08 11:35:00
6:55 AM,36.5,29.5,76,30.00,10.0,South,6.9,-,N/A,,Clear,180,2012-10-08 11:55:00
7:15 AM,37.0,29.8,75,30.00,10.0,South,6.9,-,N/A,,Clear,170,2012-10-08 12:15:00
7:35 AM,36.9,29.3,74,30.00,10.0,South,8.1,-,N/A,,Clear,180,2012-10-08 12:35:00
7:55 AM,36.5,29.7,76,30.00,10.0,South,5.8,-,N/A,,Clear,180,2012-10-08 12:55:00
8:15 AM,36.5,29.8,77,30.01,10.0,South,6.9,-,N/A,,Clear,190,2012-10-08 13:15:00
8:35 AM,38.7,30.4,72,30.01,10.0,South,9.2,-,N/A,,Clear,190,2012-10-08 13:35:00
8:55 AM,39.6,30.9,71,30.01,10.0,South,10.4,-,N/A,,Clear,190,2012-10-08 13:55:00
9:15 AM,41.9,30.9,65,30.00,10.0,SSW,10.4,-,N/A,,Clear,200,2012-10-08 14:15:00
9:35 AM,44.2,31.3,60,30.00,10.0,SSW,11.5,-,N/A,,Clear,200,2012-10-08 14:35:00
9:55 AM,46.8,31.3,55,30.00,10.0,SSW,13.8,-,N/A,,Clear,200,2012-10-08 14:55:00
10:15 AM,48.6,30.9,51,29.99,10.0,South,15.0,-,N/A,,Clear,190,2012-10-08 15:15:00
10:35 AM,50.5,31.1,47,29.99,10.0,South,12.7,-,N/A,,Clear,190,2012-10-08 15:35:00
10:55 AM,52.7,30.6,43,29.99,10.0,SSW,12.7,-,N/A,,Clear,200,2012-10-08 15:55:00
11:15 AM,54.3,30.0,39,29.98,10.0,South,11.5,-,N/A,,Clear,180,2012-10-08 16:15:00
11:35 AM,57.0,28.9,34,29.97,10.0,South,12.7,-,N/A,,Clear,190,2012-10-08 16:35:00
11:55 AM,59.0,28.8,32,29.96,10.0,South,11.5,17.3,N/A,,Clear,190,2012-10-08 16:55:00
12:15 PM,60.8,27.3,28,29.95,10.0,SSW,11.5,18.4,N/A,,Clear,200,2012-10-08 17:15:00
12:35 PM,62.6,26.6,26,29.95,10.0,SSW,16.1,-,N/A,,Clear,210,2012-10-08 17:35:00
12:55 PM,63.7,27.1,25,29.93,10.0,SSW,15.0,25.3,N/A,,Clear,200,2012-10-08 17:55:00
1:15 PM,65.3,27.0,24,29.92,10.0,SSW,18.4,25.3,N/A,,Clear,200,2012-10-08 18:15:00
1:35 PM,66.4,27.1,23,29.91,10.0,SSW,20.7,28.8,N/A,,Clear,210,2012-10-08 18:35:00
1:55 PM,67.3,26.6,22,29.89,10.0,SSW,19.6,25.3,N/A,,Clear,210,2012-10-08 18:55:00
2:15 PM,68.2,24.8,20,29.88,10.0,SSW,19.6,27.6,N/A,,Clear,210,2012-10-08 19:15:00
2:35 PM,68.7,24.3,19,29.87,10.0,SW,17.3,27.6,N/A,,Clear,220,2012-10-08 19:35:00
2:55 PM,69.6,24.4,18,29.86,10.0,SSW,21.9,26.5,N/A,,Clear,200,2012-10-08 19:55:00
3:15 PM,70.7,23.2,17,29.85,10.0,SW,19.6,26.5,N/A,,Clear,230,2012-10-08 20:15:00
3:35 PM,71.1,23.4,17,29.84,10.0,SSW,18.4,24.2,N/A,,Clear,210,2012-10-08 20:35:00
3:55 PM,70.7,21.6,16,29.83,10.0,SW,16.1,26.5,N/A,,Clear,220,2012-10-08 20:55:00
4:15 PM,72.0,20.8,15,29.83,10.0,SW,17.3,24.2,N/A,,Clear,220,2012-10-08 21:15:00
4:35 PM,72.5,20.5,14,29.83,10.0,SSW,18.4,26.5,N/A,,Clear,210,2012-10-08 21:35:00
4:55 PM,71.8,19.9,14,29.82,10.0,SW,18.4,24.2,N/A,,Clear,230,2012-10-08 21:55:00
5:15 PM,71.8,19.4,14,29.82,10.0,SW,18.4,23.0,N/A,,Clear,220,2012-10-08 22:15:00
5:35 PM,71.6,19.0,14,29.82,10.0,SSW,18.4,-,N/A,,Clear,210,2012-10-08 22:35:00
5:55 PM,71.8,19.2,14,29.81,10.0,SSW,18.4,24.2,N/A,,Clear,200,2012-10-08 22:55:00
6:15 PM,70.5,21.0,15,29.82,10.0,SSW,15.0,-,N/A,,Clear,200,2012-10-08 23:15:00
6:35 PM,68.7,24.1,19,29.82,10.0,South,15.0,-,N/A,,Clear,180,2012-10-08 23:35:00
6:55 PM,67.1,25.5,21,29.82,10.0,South,11.5,-,N/A,,Clear,180,2012-10-08 23:55:00
7:15 PM,66.2,26.6,23,29.82,10.0,South,11.5,-,N/A,,Clear,170,2012-10-09 00:15:00
7:35 PM,64.6,27.0,24,29.82,10.0,South,12.7,-,N/A,,Clear,170,2012-10-09 00:35:00
7:55 PM,63.5,27.1,25,29.82,10.0,South,12.7,-,N/A,,Clear,170,2012-10-09 00:55:00
8:15 PM,62.6,26.6,26,29.82,10.0,South,12.7,-,N/A,,Clear,170,2012-10-09 01:15:00
8:35 PM,62.6,27.3,26,29.82,10.0,South,16.1,-,N/A,,Clear,180,2012-10-09 01:35:00
8:55 PM,62.6,27.0,26,29.83,10.0,South,17.3,-,N/A,,Clear,180,2012-10-09 01:55:00
9:15 PM,61.7,26.6,26,29.83,10.0,South,15.0,20.7,N/A,,Clear,180,2012-10-09 02:15:00
9:35 PM,61.2,26.6,27,29.83,10.0,South,17.3,23.0,N/A,,Clear,190,2012-10-09 02:35:00
9:55 PM,60.3,26.6,28,29.83,10.0,South,15.0,-,N/A,,Clear,190,2012-10-09 02:55:00
10:15 PM,59.9,26.6,28,29.83,10.0,South,15.0,19.6,N/A,,Clear,190,2012-10-09 03:15:00
10:35 PM,59.0,26.6,29,29.83,10.0,South,13.8,20.7,N/A,,Clear,190,2012-10-09 03:35:00
10:55 PM,58.8,27.1,30,29.83,10.0,SSW,15.0,23.0,N/A,,Clear,200,2012-10-09 03:55:00
11:15 PM,59.0,26.6,29,29.83,10.0,SSW,15.0,-,N/A,,Clear,200,2012-10-09 04:15:00
11:35 PM,58.5,27.9,31,29.83,10.0,SSW,16.1,25.3,N/A,,Clear,200,2012-10-09 04:35:00
11:55 PM,57.7,28.4,33,29.84,10.0,SSW,17.3,24.2,N/A,,Clear,200,2012-10-09 04:55:00